EN

Hourly Weather Venaria Reale

Today, 5 December, Saturday

Time Temperature Precipitation Wind Pressure Humidity
00:00 +4°C° 0.3 mm 1 mps 722 mmHg 97%
01:00 +3°C° 0.3 mm 0 mps 723 mmHg 97%
02:00 +3°C° 0 mm 0 mps 723 mmHg 95%
03:00 +4°C° 0 mm 1 mps 724 mmHg 94%
04:00 +3°C° 0 mm 1 mps 724 mmHg 93%
05:00 +4°C° 0 mm 1 mps 725 mmHg 93%
06:00 +4°C° 0 mm 1 mps 725 mmHg 92%
07:00 +4°C° 0 mm 1 mps 725 mmHg 92%
08:00 +4°C° 0.1 mm 1 mps 725 mmHg 92%
09:00 +5°C° 0.1 mm 1 mps 725 mmHg 93%
10:00 +5°C° 0.1 mm 1 mps 726 mmHg 93%
11:00 +4°C° 0.2 mm 0 mps 725 mmHg 93%
12:00 +5°C° 0.2 mm 0 mps 725 mmHg 92%
13:00 +5°C° 0.2 mm 0 mps 725 mmHg 92%
14:00 +5°C° 0.1 mm 0 mps 725 mmHg 93%
15:00 +5°C° 0.1 mm 0 mps 725 mmHg 94%
16:00 +5°C° 0.1 mm 0 mps 725 mmHg 95%
17:00 +6°C° 0.9 mm 1 mps 725 mmHg 95%
18:00 +5°C° 0.9 mm 1 mps 725 mmHg 96%
19:00 +5°C° 0.9 mm 1 mps 725 mmHg 96%
20:00 +5°C° 1.1 mm 1 mps 726 mmHg 95%
21:00 +5°C° 1.1 mm 1 mps 726 mmHg 94%
22:00 +5°C° 1.1 mm 1 mps 726 mmHg 93%
23:00 +5°C° 0.3 mm 1 mps 726 mmHg 93%

Tomorrow, 6 December, Sunday

Time Temperature Precipitation Wind Pressure Humidity
00:00 +5°C° 0.3 mm 1 mps 726 mmHg 93%
01:00 +5°C° 0.3 mm 1 mps 727 mmHg 94%
02:00 +5°C° 0.3 mm 1 mps 726 mmHg 93%
03:00 +5°C° 0.3 mm 1 mps 726 mmHg 93%
04:00 +5°C° 0.3 mm 1 mps 726 mmHg 92%
05:00 +5°C° 1.6 mm 1 mps 726 mmHg 94%
06:00 +5°C° 1.6 mm 1 mps 726 mmHg 95%
07:00 +5°C° 1.6 mm 1 mps 726 mmHg 96%
08:00 +5°C° 0.8 mm 1 mps 726 mmHg 95%
09:00 +5°C° 0.8 mm 1 mps 727 mmHg 94%
10:00 +6°C° 0.8 mm 1 mps 727 mmHg 94%
11:00 +6°C° 0.2 mm 1 mps 726 mmHg 93%
12:00 +7°C° 0.2 mm 1 mps 726 mmHg 93%
13:00 +7°C° 0.2 mm 1 mps 725 mmHg 92%
14:00 +7°C° 0 mm 1 mps 725 mmHg 91%
15:00 +7°C° 0 mm 1 mps 724 mmHg 90%
16:00 +7°C° 0 mm 1 mps 723 mmHg 89%
17:00 +6°C° 0 mm 1 mps 723 mmHg 88%
18:00 +6°C° 0 mm 1 mps 724 mmHg 87%
19:00 +6°C° 0 mm 1 mps 724 mmHg 85%
20:00 +4°C° 0 mm 2 mps 724 mmHg 82%
21:00 +4°C° 0 mm 2 mps 724 mmHg 80%
22:00 +4°C° 0 mm 2 mps 724 mmHg 77%
23:00 +4°C° 0 mm 2 mps 724 mmHg 76%

Day after tomorrow, 7 December, Monday

Time Temperature Precipitation Wind Pressure Humidity
00:00 +4°C° 0 mm 2 mps 724 mmHg 76%
01:00 +3°C° 0 mm 2 mps 724 mmHg 76%
02:00 +4°C° 0 mm 1 mps 724 mmHg 76%
03:00 +4°C° 0 mm 1 mps 724 mmHg 77%
04:00 +4°C° 0 mm 1 mps 724 mmHg 78%
05:00 +4°C° 0.1 mm 1 mps 724 mmHg 78%
06:00 +3°C° 0.1 mm 2 mps 725 mmHg 79%
07:00 +2°C° 0.1 mm 2 mps 725 mmHg 80%
08:00 +4°C° 0.8 mm 1 mps 725 mmHg 82%
09:00 +4°C° 0.8 mm 1 mps 725 mmHg 84%
10:00 +4°C° 0.8 mm 1 mps 726 mmHg 85%
11:00 +5°C° 0.5 mm 1 mps 726 mmHg 87%
12:00 +5°C° 0.5 mm 1 mps 726 mmHg 88%
13:00 +5°C° 0.5 mm 1 mps 726 mmHg 89%
14:00 +5°C° 0.3 mm 1 mps 726 mmHg 90%
15:00 +5°C° 0.3 mm 1 mps 726 mmHg 91%
16:00 +5°C° 0.3 mm 1 mps 727 mmHg 92%
17:00 +5°C° 0.7 mm 1 mps 727 mmHg 93%
18:00 +4°C° 0.7 mm 1 mps 728 mmHg 94%
19:00 +4°C° 0.7 mm 1 mps 728 mmHg 94%
20:00 +4°C° 0.2 mm 1 mps 728 mmHg 92%
21:00 +4°C° 0.2 mm 1 mps 729 mmHg 90%
22:00 +4°C° 0.2 mm 1 mps 729 mmHg 87%
23:00 +4°C° 0.3 mm 1 mps 729 mmHg 88%

8 December, Tuesday

Time Temperature Precipitation Wind Pressure Humidity
00:00 +3°C° 0.3 mm 2 mps 729 mmHg 90%
01:00 +2°C° 0.3 mm 2 mps 729 mmHg 91%
02:00 +3°C° 0.1 mm 1 mps 729 mmHg 90%
03:00 +3°C° 0.1 mm 1 mps 729 mmHg 88%
04:00 +3°C° 0.1 mm 1 mps 729 mmHg 86%
05:00 +3°C° 0.1 mm 1 mps 729 mmHg 86%
06:00 +3°C° 0.1 mm 1 mps 729 mmHg 87%
07:00 +3°C° 0.1 mm 1 mps 729 mmHg 87%
08:00 +3°C° 0 mm 1 mps 729 mmHg 86%
09:00 +3°C° 0 mm 0 mps 730 mmHg 86%
10:00 +3°C° 0 mm 0 mps 730 mmHg 85%
11:00 +3°C° 0.1 mm 0 mps 730 mmHg 86%
12:00 +5°C° 0.1 mm 1 mps 729 mmHg 88%
13:00 +5°C° 0.1 mm 1 mps 729 mmHg 90%
14:00 +5°C° 0 mm 1 mps 729 mmHg 90%
15:00 +4°C° 0 mm 0 mps 729 mmHg 90%
16:00 +3°C° 0 mm 0 mps 729 mmHg 90%
17:00 +3°C° 0 mm 0 mps 730 mmHg 90%
18:00 +3°C° 0 mm 0 mps 730 mmHg 89%
19:00 +3°C° 0 mm 1 mps 730 mmHg 89%
20:00 +3°C° 0 mm 1 mps 730 mmHg 87%
21:00 +3°C° 0 mm 1 mps 731 mmHg 85%
22:00 +2°C° 0 mm 1 mps 731 mmHg 83%
23:00 +2°C° 0 mm 1 mps 731 mmHg 81%

9 December, Wednesday

Time Temperature Precipitation Wind Pressure Humidity
00:00 +2°C° 0 mm 1 mps 731 mmHg 80%
01:00 +2°C° 0 mm 1 mps 731 mmHg 78%
02:00 +2°C° 0 mm 1 mps 731 mmHg 77%
03:00 +2°C° 0 mm 1 mps 731 mmHg 75%
04:00 +1°C° 0 mm 1 mps 731 mmHg 74%
05:00 +2°C° 0 mm 1 mps 731 mmHg 73%
06:00 +2°C° 0 mm 1 mps 731 mmHg 73%
07:00 +2°C° 0 mm 1 mps 732 mmHg 72%
08:00 +3°C° 0 mm 1 mps 732 mmHg 71%
09:00 +3°C° 0 mm 1 mps 732 mmHg 70%
10:00 +3°C° 0 mm 2 mps 732 mmHg 70%
11:00 +5°C° 0 mm 1 mps 731 mmHg 69%
12:00 +6°C° 0 mm 1 mps 731 mmHg 69%
13:00 +7°C° 0 mm 1 mps 731 mmHg 68%
14:00 +6°C° 0 mm 1 mps 731 mmHg 70%
15:00 +6°C° 0 mm 1 mps 731 mmHg 72%
16:00 +4°C° 0 mm 0 mps 731 mmHg 74%
17:00 +4°C° 0 mm 1 mps 731 mmHg 73%
18:00 +3°C° 0 mm 1 mps 732 mmHg 72%
19:00 +2°C° 0 mm 2 mps 732 mmHg 71%
20:00 +1°C° 0 mm 2 mps 732 mmHg 70%
21:00 +1°C° 0 mm 2 mps 732 mmHg 69%
22:00 +1°C° 0 mm 2 mps 733 mmHg 68%
23:00 +1°C° 0 mm 2 mps 732 mmHg 66%

10 December, Thursday

Time Temperature Precipitation Wind Pressure Humidity
00:00 -1°C° 0 mm 2 mps 732 mmHg 65%
01:00 -1°C° 0 mm 2 mps 732 mmHg 64%
02:00 -1°C° 0 mm 2 mps 732 mmHg 63%
03:00 +1°C° 0 mm 1 mps 732 mmHg 63%
04:00 +1°C° 0 mm 1 mps 732 mmHg 62%
05:00 +1°C° 0 mm 1 mps 732 mmHg 62%
06:00 +1°C° 0 mm 1 mps 731 mmHg 62%
07:00 +1°C° 0 mm 1 mps 731 mmHg 62%
08:00 +2°C° 0 mm 1 mps 731 mmHg 62%
09:00 +1°C° 0 mm 0 mps 731 mmHg 62%
10:00 +2°C° 0 mm 0 mps 731 mmHg 62%
11:00 +3°C° 0 mm 0 mps 731 mmHg 61%
12:00 +4°C° 0 mm 1 mps 730 mmHg 61%
13:00 +5°C° 0 mm 1 mps 729 mmHg 61%
14:00 +3°C° 0 mm 0 mps 729 mmHg 64%
15:00 +3°C° 0 mm 0 mps 729 mmHg 68%
16:00 +2°C° 0 mm 0 mps 728 mmHg 71%
17:00 +2°C° 0 mm 0 mps 728 mmHg 72%
18:00 +2°C° 0 mm 0 mps 727 mmHg 72%
19:00 +2°C° 0 mm 1 mps 727 mmHg 73%
20:00 +2°C° 0.8 mm 1 mps 726 mmHg 80%
21:00 +2°C° 0.8 mm 1 mps 725 mmHg 87%
22:00 +1°C° 0.8 mm 1 mps 725 mmHg 94%
23:00 +1°C° 1 mm 1 mps 724 mmHg 95%
Show more

We Need Your Consent

Meteoprog and our Service Providers may store and access personal data such as cookies, device identifiers or other similar technologies on your device and process such data to personalise content and ads, as well as provide social media features and to analyse the traffic.

  • Store and/or access information on your device

    Cookies, device identifiers or other information can be stored or accessed on your device for the purposes indicated above.

  • Personalised ads and content, ad and content measurement, audience insights, and products development

    Ads and content can be personalised based on a profile. More data can be added to better personalise ads and content. Ad and content performance can be measured. Insights about the audience who saw the ads and content can be derived. Such data can be used to develop or improve user’s experience, systems and software.

By clicking ‘I Agree’ you will allow the use of indicated cookies, device identifiers, web beacons or other similar technologies. Your settings can be changed in the browser on your device.

For certain purposes, legitimate interests may be relied on, rather than consent. You can read more about this in our Privacy and Cookie Policy.